Погода в Кабу-ди-Санту-Агостинью

Бразилия     8°17′22″S   35°01′24″W
темп.,
°C
ветер,
м/с
пор.,
м/с
влажн.,
%
обл.,
%
осадки,
мм/ч
давл.,
гПа
погр.,
м
28 июля, ср
ср2800:00+22ююз22892 0.1 101679
03:00+21юз24920 0.1 1015162
06:00+21юз24920 0.1 1015180
09:00+26юв456928 0.1 10171143
12:00+27юв556879 0.1 10151279
15:00+26ююв44687 0.1 1014985
18:00+23ююв35854 0.0 1015192
21:00+22ю23880 0.0 1016125
29 июля, чт
чт2900:00+21ююз239120 0.0 1016157
03:00+20юз249313 0.0 1015152
06:00+20юз349418 0.0 1016119
09:00+26ююв24740 0.0 1017648
12:00+28вюв44653 0.0 10161130
15:00+27вюв437123 0.1 1014932
18:00+23вюв24879 0.0 1015152
21:00+23ююв1291100 0.0 1017117
30 июля, пт
пт3000:00+22ююв129225 0.1 1017112
03:00+22ююв239125 0.4 1016110
06:00+22ююз23925 0.4 1017118
09:00+26ююв45736 0.6 1019997
12:00+28ююв566352 0.1 10171368
15:00+26ююв67673 0.2 10161082
18:00+23ю49879 0.6 1018407
21:00+22ю388869 0.9 1019349
31 июля, сб
сб3100:00+21ю369150 0.3 1018215
03:00+21ю369396 2.4 1018288
06:00+21ю38939 0.3 1019334
09:00+25юв697710 1.3 10201087
12:00+27юв796516 0.3 10191362
15:00+26ююв79691 0.3 10171236
18:00+23ююв510815 0.0 1019609
21:00+23ю5108647 0.2 1020577
1 августа, вс
вс100:00+22ююв5109148 1.4 1019416
03:00+22ююв4990100 5.1 1018418
06:00+22ююв3992100 3.6 1019423
09:00+24юв6983100 7.5 1021843
12:00+25юв68780 2.9 1019942
15:00+25ююв698231 4.9 1018860
18:00+22ююв5109024 3.3 1020387
21:00+22ю6119043 7.1 1020479